This is the latest recevied weather packets stored in our database for station/object N8TWM-13. If no packets are shown the sender has not sent any weather packets the latest 10 day(s).
| Time | Temp. | Humidity | Pressure | Rain* | Wind** | Luminosity | Snow |
|---|---|---|---|---|---|---|---|
| 1777909296 | 17.78° C | 58% | 1007.9 hPa | 0 mm | - | 726 W/m² | - |
| 1777908993 | 18.33° C | 59% | 1008.1 hPa | 0 mm | - | 736 W/m² | - |
| 1777908691 | 17.78° C | 60% | 1008.1 hPa | 0 mm | - | 730 W/m² | - |
| 1777908388 | 17.78° C | 58% | 1008.1 hPa | 0 mm | - | 121 W/m² | - |
| 1777908084 | 17.78° C | 58% | 1008.1 hPa | 0 mm | - | 773 W/m² | - |
| 1777907780 | 17.78° C | 59% | 1008.1 hPa | 0 mm | - | 755 W/m² | - |
| 1777907475 | 17.22° C | 59% | 1008.1 hPa | 0 mm | - | 766 W/m² | - |
| 1777907173 | 17.22° C | 59% | 1008.1 hPa | 0 mm | - | 755 W/m² | - |
| 1777906869 | 17.22° C | 59% | 1008.4 hPa | 0 mm | - | 755 W/m² | - |
| 1777906567 | 17.78° C | 60% | 1008.5 hPa | 0 mm | - | 787 W/m² | - |
| 1777906262 | 17.78° C | 58% | 1008.6 hPa | 0 mm | - | 796 W/m² | - |
| 1777905959 | 17.22° C | 59% | 1008.3 hPa | 0 mm | - | 794 W/m² | - |
| 1777905655 | 17.22° C | 59% | 1008.4 hPa | 0 mm | - | 753 W/m² | - |
| 1777905353 | 17.22° C | 59% | 1008.1 hPa | 0 mm | - | 718 W/m² | - |
| 1777905050 | 16.67° C | 59% | 1008.4 hPa | 0 mm | - | 720 W/m² | - |
| 1777904748 | 16.67° C | 59% | 1008.3 hPa | 0 mm | - | 665 W/m² | - |
| 1777904444 | 16.11° C | 60% | 1008.3 hPa | 0 mm | - | 654 W/m² | - |
| 1777904141 | 16.11° C | 60% | 1008.4 hPa | 0 mm | - | 639 W/m² | - |
| 1777903838 | 15.56° C | 60% | 1008.6 hPa | 0 mm | - | 568 W/m² | - |
| 1777903535 | 16.11° C | 60% | 1008.7 hPa | 0 mm | - | 562 W/m² | - |
| 1777903231 | 15.56° C | 61% | 1008.8 hPa | 0 mm | - | 548 W/m² | - |
| 1777902927 | 15.56° C | 61% | 1008.9 hPa | 0 mm | - | 552 W/m² | - |
| 1777902624 | 15° C | 61% | 1008.9 hPa | 0 mm | - | 556 W/m² | - |
| 1777902321 | 15° C | 64% | 1009.1 hPa | 0 mm | - | 357 W/m² | - |
| 1777902018 | 15° C | 62% | 1008.9 hPa | 0 mm | - | 429 W/m² | - |
* Rain latest hour (hover to see other rain measurements)
** Current wind speed in m/s (hover to see current wind gust speed)